Date,TemperatureHighF,TemperatureAvgF,TemperatureLowF,DewpointHighF,DewpointAvgF,DewpointLowF,HumidityHigh,HumidityAvg,HumidityLow,PressureMaxIn,PressureMinIn,WindSpeedMaxMPH,WindSpeedAvgMPH,GustSpeedMaxMPH,PrecipitationSumIn
2014-1-1,66.2,44.0,29.9,38.4,30.5,24.7,85,63,31,30.18,30.08,6,0,6,0.00
2014-1-2,67.3,46.2,33.1,41.0,33.6,27.5,85,64,36,30.16,30.02,6,1,6,0.00
2014-1-3,65.9,46.7,34.0,42.7,35.2,29.1,85,66,39,30.05,29.92,4,0,4,0.00
2014-1-4,68.4,46.5,33.1,42.0,32.9,24.8,90,63,32,30.05,29.95,6,1,6,0.00
2014-1-5,67.3,45.8,31.7,37.2,28.4,20.4,73,53,30,30.18,30.03,6,1,6,0.00
2014-1-6,60.5,45.6,33.1,41.8,35.4,27.3,86,69,49,30.25,30.13,5,0,5,0.00
2014-1-7,65.0,49.2,37.6,47.3,38.4,32.4,86,68,34,30.16,30.09,7,1,7,0.00
2014-1-8,58.0,51.0,42.1,50.0,46.6,39.4,91,85,71,30.18,30.10,8,1,8,0.00
2014-1-9,62.1,50.5,40.9,50.3,44.3,36.3,94,80,63,30.22,30.14,8,2,10,0.00
2014-1-10,64.8,47.1,35.3,49.9,40.1,32.3,92,78,54,30.27,30.13,5,0,5,0.00
2014-1-11,57.1,46.4,39.1,51.1,42.8,35.8,91,87,78,30.24,30.10,10,1,10,0.00
2014-1-12,61.6,47.3,38.2,46.7,37.3,32.3,94,72,40,30.36,30.21,9,1,9,0.00
2014-1-16,74.0,52.6,32.6,40.3,33.7,26.5,84,53,23,30.21,30.08,7,1,7,0.00
2014-1-17,71.5,45.4,31.1,41.8,32.5,25.1,91,63,32,30.17,30.07,4,0,6,0.00
2014-1-18,68.8,46.5,30.2,36.9,31.1,25.4,84,59,28,30.15,30.03,6,1,6,0.00
2014-1-19,67.0,46.2,31.5,39.5,31.7,24.8,81,60,33,30.12,30.03,6,1,6,0.00
2014-1-20,68.8,47.2,32.2,36.2,30.5,26.7,84,57,26,30.20,30.09,6,1,6,0.00
2014-1-21,68.0,46.6,31.3,36.9,28.9,24.7,79,54,25,30.24,30.12,8,1,8,0.00
2014-1-22,72.4,51.1,31.7,34.0,28.8,21.7,78,47,16,30.15,29.89,8,0,8,0.00
2014-1-23,64.8,53.6,35.5,35.9,31.7,26.5,73,46,30,29.98,29.84,11,2,11,0.00
2014-1-24,69.1,49.6,35.6,39.7,34.3,30.2,84,59,29,30.23,29.98,5,0,5,0.00
2014-1-25,71.8,51.8,38.0,37.5,33.0,29.3,79,53,24,30.24,30.09,8,1,8,0.00
2014-1-26,70.9,51.5,38.0,37.9,33.3,28.4,73,53,28,30.09,29.98,7,1,7,0.00
2014-1-27,65.5,50.8,37.6,48.2,42.1,33.1,86,73,52,30.15,30.03,7,1,7,0.00
2014-1-28,69.7,58.1,48.4,56.0,50.5,43.5,91,77,53,30.22,30.13,8,1,8,0.00
2014-1-29,62.6,58.4,54.5,57.7,54.9,49.0,92,88,82,30.17,29.94,8,1,8,0.00
2014-1-30,59.9,53.6,50.0,51.5,47.3,44.3,92,80,62,29.95,29.82,10,2,10,0.04
2014-1-31,60.8,49.9,38.9,45.8,37.3,23.7,92,65,25,30.05,29.87,10,1,10,0.00
2014-2-1,58.9,44.0,30.6,38.4,31.9,26.8,89,65,36,30.13,30.03,9,1,9,0.00
2014-2-2,47.5,42.2,37.4,44.2,38.2,31.9,92,85,79,30.03,29.83,8,1,8,0.46
2014-2-3,56.5,44.9,36.2,43.8,38.3,32.6,94,79,52,30.05,29.95,12,1,12,0.00
2014-2-4,55.8,42.2,32.2,42.4,35.7,29.7,91,79,53,30.13,30.01,8,1,8,0.00
2014-2-5,56.0,44.6,32.0,43.1,37.4,29.3,93,77,49,30.16,30.02,10,2,10,0.04
2014-2-6,54.0,48.9,44.6,48.0,45.1,42.1,93,87,77,30.03,29.86,8,1,8,0.61
2014-2-7,54.2,52.1,47.9,50.3,48.4,45.5,92,87,82,30.08,29.96,16,3,16,0.30
2014-2-8,59.0,56.0,52.9,55.7,52.8,49.2,92,89,82,30.12,30.02,10,3,13,1.02
2014-2-9,60.5,56.7,54.9,56.3,54.4,53.1,95,92,83,30.14,30.03,9,2,9,2.06
2014-2-10,62.3,55.2,49.1,55.4,51.9,46.8,95,89,77,30.24,30.07,7,2,8,0.00
2014-2-11,63.5,53.7,46.6,53.0,48.5,43.8,95,83,61,30.21,30.11,7,1,7,0.02
2014-2-12,66.8,52.7,41.0,51.5,45.3,39.2,95,78,51,30.25,30.13,7,1,7,0.00
2014-2-13,72.4,57.6,48.6,59.6,51.4,45.4,92,81,63,30.18,30.06,9,1,9,0.00
2014-2-14,65.3,57.2,48.6,56.2,52.2,45.5,93,84,67,30.13,30.02,8,1,8,0.00
2014-2-15,62.6,51.6,45.4,54.5,47.7,42.9,94,87,73,30.02,29.93,9,1,9,0.00
2014-2-16,65.0,54.4,41.9,54.0,42.9,36.4,94,69,36,30.18,29.99,12,1,12,0.04
2014-2-17,63.4,49.3,36.0,47.3,40.1,32.8,92,73,46,30.14,30.06,10,1,10,0.00
2014-2-18,65.5,50.7,38.2,49.7,43.5,35.3,92,78,50,30.17,30.05,9,1,9,0.00
2014-2-19,65.9,54.2,44.8,56.2,46.0,38.4,94,77,37,30.17,30.05,9,1,9,0.03
2014-2-20,68.9,53.1,37.4,47.4,37.9,34.3,91,61,31,30.18,30.08,8,1,8,0.00
2014-2-21,71.5,54.6,37.8,46.0,39.3,33.4,87,60,32,30.10,29.95,9,1,9,0.00
2014-2-22,72.2,55.5,39.1,49.7,40.7,35.2,90,62,28,29.99,29.88,9,1,9,0.00
2014-2-23,72.2,53.3,38.9,49.5,42.1,35.3,93,69,35,30.00,29.90,7,1,7,0.00
2014-2-24,74.0,56.6,37.8,48.6,42.3,34.2,90,63,34,29.98,29.87,6,1,6,0.00
2014-2-25,70.6,55.3,41.4,51.8,45.1,37.6,90,71,43,29.95,29.85,11,1,11,0.00
2014-2-26,60.1,55.0,49.7,54.3,50.6,45.3,92,85,75,29.92,29.63,16,2,16,0.58
2014-2-27,64.6,56.9,51.3,54.7,48.9,44.7,91,76,57,29.87,29.50,14,3,14,0.21
2014-2-28,60.5,54.4,50.2,52.8,49.2,43.4,93,83,62,29.51,29.35,13,2,13,1.26
2014-3-1,65.2,56.6,48.4,49.9,47.1,44.1,89,71,54,29.79,29.46,16,6,16,0.04
2014-3-2,59.0,52.5,46.1,53.8,47.9,43.3,91,84,72,30.15,29.78,13,2,13,0.00
2014-3-3,60.8,52.2,43.7,51.0,47.0,41.0,93,83,64,30.13,30.01,6,0,6,0.07
2014-3-4,66.4,57.2,52.2,56.7,52.5,49.3,94,85,69,30.10,30.01,8,1,8,0.02
2014-3-5,71.8,60.3,50.9,57.8,52.8,48.5,94,78,59,30.08,29.96,10,1,10,0.46
2014-3-6,71.1,57.9,47.3,59.1,51.7,44.0,93,81,56,30.15,30.01,11,2,11,0.08
2014-3-7,68.9,55.8,42.1,52.7,45.2,39.7,93,70,43,30.15,30.06,8,1,8,0.00
2014-3-8,73.8,58.8,41.4,51.6,46.3,38.7,92,66,42,30.17,30.06,6,1,6,0.00
2014-3-9,76.0,63.6,53.5,58.3,52.6,47.5,85,69,46,30.15,30.04,6,1,6,0.00
2014-3-10,68.9,59.8,51.8,52.9,47.5,40.5,90,66,42,30.20,30.06,8,1,8,0.02
2014-3-11,77.9,57.2,45.0,42.1,35.1,27.7,72,46,18,30.16,29.99,15,1,15,0.00
2014-3-12,64.6,56.4,50.4,37.2,35.4,33.8,55,46,32,30.01,29.98,1,0,1,0.00
2014-3-13,79.6,59.8,40.1,44.7,35.2,26.2,76,47,18,30.04,29.93,10,1,10,0.00
2014-3-17,70.0,62.4,48.4,52.9,41.8,36.1,86,49,34,30.11,29.94,10,2,10,0.00
2014-3-18,78.8,57.2,38.9,44.6,34.6,27.7,85,50,21,29.95,29.86,12,1,12,0.00
2014-3-19,76.0,58.7,38.5,43.6,38.3,32.3,81,51,25,30.05,29.94,8,1,8,0.00
2014-3-20,80.3,61.3,46.1,49.8,43.1,39.3,80,55,28,30.03,29.89,10,1,10,0.00
2014-3-21,72.9,56.7,42.1,51.0,44.8,38.3,88,67,44,29.96,29.88,11,2,11,0.00
2014-3-22,73.1,57.1,42.7,52.0,45.2,38.9,90,67,41,30.08,29.95,10,2,10,0.00
2014-3-23,74.9,57.5,41.6,52.7,45.1,38.0,90,66,35,30.14,30.03,8,1,8,0.00
2014-3-24,81.4,61.7,41.0,50.6,43.4,36.8,87,56,29,30.12,29.97,8,1,8,0.00
2014-3-25,67.5,54.2,42.8,55.5,46.8,38.0,86,76,57,30.01,29.82,13,2,13,0.07
2014-3-26,60.3,53.3,49.9,53.7,48.3,45.8,91,84,63,29.94,29.78,14,3,14,0.82
2014-3-27,65.7,55.5,48.2,51.8,47.3,45.0,93,76,51,30.11,29.94,9,2,10,0.02
2014-3-28,72.4,59.0,47.7,54.8,48.8,44.4,89,71,47,30.16,30.07,11,2,11,0.00
2014-3-29,60.1,55.1,48.6,56.3,49.9,45.5,90,83,74,30.12,29.97,9,2,9,0.54
2014-3-30,61.6,51.4,41.0,49.5,43.5,38.8,94,76,52,30.09,30.00,12,3,12,0.00
2014-3-31,56.0,45.7,40.9,46.1,41.2,37.1,91,84,62,30.05,29.80,18,1,18,0.65
2014-4-1,56.3,46.1,40.0,48.6,42.1,37.5,94,86,61,29.91,29.79,14,2,14,0.85
2014-4-2,61.9,49.3,39.2,47.2,41.8,37.1,94,77,49,30.08,29.84,10,1,10,0.00
2014-4-3,66.2,51.6,39.1,49.4,42.3,36.1,92,73,45,30.09,29.99,9,2,9,0.00
2014-4-4,59.9,50.8,44.6,50.0,45.0,40.9,91,81,59,30.02,29.94,12,2,12,0.28
2014-4-5,68.0,53.4,39.4,51.4,45.1,37.0,93,75,50,30.16,30.00,13,2,13,0.00
2014-4-6,80.5,60.2,41.6,53.4,47.1,38.6,92,66,33,30.20,30.06,9,1,9,0.00
2014-4-10,83.5,67.4,58.0,54.4,50.7,48.2,70,57,37,29.90,29.85,6,1,7,0.00
2014-4-11,68.6,55.8,50.0,55.6,48.8,45.4,86,77,61,29.90,29.86,7,0,7,0.00
2014-4-21,68.6,58.9,54.7,48.3,43.3,35.3,79,58,31,29.98,29.93,11,2,11,0.00
2014-4-22,66.4,55.9,48.6,49.7,42.8,38.4,86,63,41,30.09,29.92,14,4,14,0.02
2014-4-23,70.2,55.6,39.2,48.3,41.9,33.9,84,62,39,30.11,30.03,13,2,13,0.00
2014-4-24,68.9,57.7,47.0,53.3,48.9,42.8,90,73,55,30.08,29.96,12,3,12,0.00
2014-4-25,56.9,52.3,46.4,50.4,47.3,42.8,90,83,68,29.87,29.75,13,3,13,0.72
2014-4-26,62.6,50.0,39.8,46.0,42.3,37.5,94,77,47,30.05,29.81,16,3,16,0.00
2014-4-27,66.4,55.8,48.2,51.9,46.0,42.8,83,71,52,30.10,30.00,11,2,11,0.00
2014-4-28,77.4,59.3,42.1,52.8,45.7,38.7,92,64,30,30.18,30.08,11,2,11,0.00
2014-4-29,89.3,67.0,44.6,52.6,44.9,40.1,87,52,22,30.18,30.02,9,1,9,0.00
2014-4-30,93.2,71.8,50.2,55.0,49.3,43.9,82,50,25,30.07,29.97,10,1,10,0.00
2014-5-1,95.4,73.0,51.8,57.5,48.1,38.0,81,46,21,30.06,30.00,11,2,11,0.00
2014-5-2,86.8,67.5,48.1,52.3,45.9,40.4,78,51,23,30.06,29.95,13,2,13,0.00
2014-5-3,70.0,61.9,53.6,53.0,50.0,46.0,88,66,47,30.00,29.95,13,4,13,0.00
2014-5-4,70.2,59.7,51.1,53.4,50.1,46.8,87,72,52,30.02,29.97,13,4,13,0.00
2014-5-5,67.9,58.6,51.5,50.4,47.6,43.1,85,68,48,30.02,29.91,16,4,16,0.00
2014-5-6,71.8,58.2,44.6,50.0,44.9,39.5,85,64,38,29.91,29.83,14,2,14,0.00
2014-5-7,69.3,56.9,46.8,50.8,46.6,42.2,86,70,47,29.98,29.86,13,3,13,0.00
2014-5-8,68.4,60.1,51.8,56.4,52.1,46.1,88,75,63,30.05,29.97,10,3,10,0.00
2014-5-9,70.6,60.5,51.8,54.8,50.8,44.0,90,72,48,30.12,30.05,15,3,15,0.00
2014-5-10,72.9,58.7,43.6,47.7,44.6,39.2,90,62,33,30.11,29.97,16,3,16,0.00
2014-5-11,83.5,72.1,55.1,40.1,37.5,31.5,53,30,18,30.06,29.97,12,2,12,0.00
2014-5-12,90.5,68.5,44.3,46.4,40.3,33.8,80,42,15,30.08,29.99,9,2,9,0.00
2014-5-13,97.0,73.3,49.3,49.1,43.2,38.8,73,39,17,30.11,30.03,11,1,11,0.00
2014-5-14,98.6,75.9,51.5,52.7,44.4,38.2,73,38,15,30.11,30.00,10,2,10,0.00
2014-5-15,95.0,74.0,51.3,51.0,45.6,37.0,71,42,15,30.07,30.00,11,2,11,0.00
2014-5-16,87.1,67.1,50.8,52.2,47.4,40.3,78,53,21,30.05,29.95,10,2,10,0.00
2014-5-17,73.4,61.2,51.7,54.4,50.8,47.1,88,70,50,29.97,29.91,12,2,12,0.00
2014-5-18,73.3,61.4,52.2,55.4,50.6,46.3,84,69,47,29.95,29.89,14,3,14,0.00
2014-5-19,69.8,58.8,50.8,52.5,49.4,46.6,88,72,51,29.92,29.89,14,4,14,0.00
2014-5-20,74.2,60.8,51.3,53.8,49.8,46.3,85,69,47,29.97,29.89,14,3,14,0.00
2014-5-21,80.5,64.6,54.4,57.3,51.7,48.3,83,65,41,29.94,29.87,14,2,14,0.00
2014-5-22,83.5,64.1,53.3,58.8,53.0,48.2,85,70,42,29.93,29.87,11,2,11,0.00
2014-5-24,75.4,62.9,55.6,55.1,50.2,47.6,77,64,49,29.94,29.87,7,1,8,0.00
2014-5-25,85.0,60.4,51.1,59.0,50.6,46.6,87,72,40,29.94,29.90,8,1,8,0.00
2014-5-26,87.8,68.8,50.0,59.4,51.7,44.3,84,57,35,29.98,29.90,12,2,12,0.00
2014-5-27,82.3,64.5,49.3,52.8,46.8,39.2,87,57,24,30.01,29.93,11,2,11,0.00
2014-5-28,83.9,65.6,46.6,47.4,42.7,31.2,83,49,17,30.03,29.91,12,2,12,0.00
2014-5-29,85.9,66.4,46.6,48.4,42.0,32.1,80,47,21,29.92,29.85,13,2,13,0.00
2014-5-30,73.4,59.3,47.5,52.9,48.0,42.8,87,68,46,29.94,29.86,15,3,15,0.00
2014-5-31,79.2,59.0,50.8,64.5,49.5,45.9,86,73,41,29.93,29.90,8,2,8,0.00
2014-6-1,89.5,77.8,61.0,56.2,46.1,39.6,70,36,19,29.87,29.75,12,3,12,0.00
2014-6-2,73.1,60.8,50.2,54.4,49.5,43.6,87,68,49,29.88,29.78,12,2,12,0.00
2014-6-3,83.3,65.1,53.1,54.6,49.9,41.8,84,62,27,29.90,29.81,12,2,12,0.00
2014-6-4,92.0,70.0,49.7,58.3,49.5,43.3,88,54,21,29.87,29.77,13,2,13,0.00
2014-6-5,88.2,70.8,55.3,56.2,49.6,44.3,79,51,26,29.82,29.75,12,2,12,0.00
2014-6-6,85.9,67.4,54.0,56.8,51.9,47.6,88,61,32,29.80,29.73,12,2,12,0.00
2014-6-7,72.7,56.2,52.2,57.5,50.7,48.2,89,82,60,29.81,29.78,4,1,4,0.00
2014-6-8,105.8,94.9,71.1,58.1,53.9,50.6,54,27,17,29.77,29.67,13,3,13,0.00
2014-6-9,105.8,81.4,58.9,60.9,53.3,46.5,74,43,17,29.73,29.63,11,2,11,0.00
2014-6-10,87.1,70.7,57.8,60.1,54.7,51.3,84,59,35,29.79,29.66,15,3,15,0.00
2014-6-11,79.6,65.7,56.2,58.3,54.2,50.4,85,68,46,29.87,29.77,13,4,13,0.00
2014-6-12,75.2,62.3,54.0,54.0,51.3,48.8,84,69,47,29.94,29.86,13,3,13,0.00
2014-6-13,85.0,66.5,49.1,57.1,49.8,39.2,90,60,23,29.95,29.88,13,2,13,0.00
2014-6-14,90.0,68.8,50.9,54.6,48.2,37.8,85,53,22,29.90,29.79,14,2,14,0.00
2014-6-15,77.4,61.2,51.7,53.7,49.8,45.7,85,68,41,29.82,29.76,10,3,10,0.00
2014-6-16,67.0,59.0,52.2,50.6,48.3,44.9,82,69,53,29.89,29.79,15,3,15,0.00
2014-6-17,81.0,64.4,47.2,52.0,45.7,41.3,88,55,30,29.91,29.84,13,3,13,0.00
2014-6-18,90.9,70.4,47.9,50.3,43.1,36.7,78,44,18,29.92,29.87,16,2,16,0.00
2014-6-19,87.8,76.3,53.6,53.6,48.4,38.0,79,41,18,29.95,29.92,11,3,11,0.00
2014-6-20,90.7,69.6,52.0,59.2,51.7,45.7,86,57,30,29.95,29.88,14,2,14,0.00
2014-6-21,78.1,63.7,52.9,52.9,49.9,46.6,84,63,40,29.90,29.84,9,2,9,0.00
2014-6-22,82.1,63.1,50.2,55.0,50.1,46.0,89,66,37,29.92,29.86,13,2,13,0.00
2014-6-23,87.8,67.6,52.4,57.9,51.9,47.0,87,61,31,29.92,29.86,11,2,11,0.00
2014-6-24,82.8,66.6,53.1,57.3,52.4,47.1,84,63,37,29.95,29.91,13,3,13,0.00
2014-6-25,72.0,62.6,55.8,60.0,55.8,51.6,89,79,65,29.98,29.92,13,3,13,0.00
2014-6-26,76.5,65.2,58.3,57.2,55.4,53.0,89,72,50,29.96,29.90,17,4,17,0.00
2014-6-27,81.2,67.0,56.3,62.5,57.2,52.4,89,72,52,29.95,29.89,13,3,13,0.00
2014-6-28,84.8,67.9,56.5,59.8,54.9,50.6,88,66,33,29.93,29.85,10,2,10,0.00
2014-6-29,97.2,74.7,53.1,61.8,54.4,48.7,87,55,26,29.91,29.78,11,2,11,0.00
2014-6-30,103.9,79.2,58.3,59.4,52.3,48.0,77,45,19,29.81,29.73,15,2,15,0.00
2014-7-1,87.3,70.6,57.2,62.2,55.8,51.5,85,62,40,29.82,29.74,11,2,11,0.00
2014-7-2,85.3,67.1,56.3,60.4,55.3,51.4,87,68,41,29.88,29.80,10,2,12,0.00
2014-7-3,87.5,68.3,55.3,60.3,54.2,50.4,88,64,34,29.90,29.84,9,2,9,0.00
2014-7-4,90.7,69.6,52.4,61.4,51.3,44.1,89,58,23,29.97,29.85,10,2,10,0.00
2014-7-5,95.2,71.6,50.0,57.0,48.0,34.7,90,52,15,30.02,29.96,9,2,11,0.00
2014-7-6,97.6,74.0,51.5,54.6,46.6,35.4,78,44,12,30.01,29.88,11,2,11,0.00
2014-7-7,64.4,61.2,59.0,53.5,50.0,45.2,76,67,50,29.89,29.85,3,0,3,0.00
2014-7-8,90.0,71.3,58.3,61.4,55.7,52.0,81,61,33,29.88,29.81,10,2,10,0.00
2014-7-9,87.3,68.6,55.4,61.7,56.2,51.8,91,68,40,29.91,29.80,11,3,11,0.00
2014-7-10,83.5,67.3,55.6,60.3,56.0,51.5,88,69,44,29.91,29.82,12,3,12,0.00
2014-7-11,78.8,66.5,59.4,58.9,55.8,52.6,86,70,49,30.04,29.90,15,4,15,0.00
2014-7-12,83.2,67.0,57.2,59.2,55.4,51.9,85,68,42,30.05,29.97,13,3,13,0.00
2014-7-13,94.9,70.9,56.3,63.7,57.0,51.5,87,65,35,30.00,29.84,8,2,8,0.00
2014-7-14,100.3,76.8,58.9,62.9,57.0,50.6,83,54,21,29.89,29.80,11,2,11,0.00
2014-7-15,89.5,74.4,63.2,66.3,60.2,54.9,78,63,42,29.95,29.86,12,3,12,0.00
2014-7-16,82.4,68.5,60.8,62.9,58.3,55.5,87,71,45,30.01,29.93,16,5,16,0.00
2014-7-17,78.7,67.5,60.1,61.1,57.4,55.0,85,71,53,29.98,29.91,15,4,15,0.00
2014-7-18,78.7,67.3,60.3,61.1,57.5,55.3,84,72,53,29.99,29.90,14,4,14,0.00
2014-7-19,87.5,70.1,58.9,62.8,58.0,54.9,88,68,40,29.93,29.87,14,3,16,0.00
2014-7-20,79.6,67.7,60.7,62.8,58.7,56.1,87,74,54,29.95,29.88,15,3,15,0.00
2014-7-21,78.8,68.4,61.2,62.5,59.0,55.0,85,73,55,30.02,29.94,13,4,13,0.00
2014-7-22,81.0,67.8,59.9,60.7,58.1,55.4,86,72,49,30.08,30.00,11,4,15,0.00
2014-7-23,82.4,70.1,62.3,62.0,59.0,56.3,83,69,48,30.11,30.00,12,3,12,0.00
2014-7-24,96.1,74.5,55.4,63.7,56.9,52.1,91,60,28,30.02,29.79,12,2,12,0.00
2014-7-25,102.1,79.5,57.1,58.1,52.2,47.0,80,45,18,29.86,29.78,11,2,11,0.00
2014-7-26,100.3,78.2,58.0,59.1,51.1,38.7,79,44,13,29.92,29.84,10,2,10,0.00
2014-7-27,99.4,79.6,66.8,60.7,51.6,34.4,67,43,11,29.95,29.87,11,2,11,0.00
2014-7-28,93.4,73.8,58.9,61.2,55.8,50.8,84,56,31,30.01,29.94,12,2,12,0.00
2014-7-29,96.1,77.5,61.2,61.5,52.4,39.8,79,48,16,30.02,29.93,12,2,12,0.00
2014-7-30,97.2,77.6,61.4,62.2,56.1,51.1,79,51,24,29.96,29.89,11,2,11,0.00
2014-7-31,97.6,76.3,58.1,62.3,55.4,49.9,85,53,22,29.94,29.83,10,2,10,0.00
2014-8-1,99.7,77.4,59.8,63.2,54.9,43.4,79,51,17,29.87,29.80,11,2,11,0.00
2014-8-2,86.0,69.7,58.0,62.5,56.6,52.9,86,65,41,29.91,29.83,10,2,10,0.00
2014-8-3,83.5,66.3,57.6,60.8,56.4,53.1,89,73,46,29.94,29.85,11,2,11,0.00
2014-8-4,82.1,66.9,58.7,61.0,57.0,53.2,87,72,48,29.96,29.89,10,2,10,0.00
2014-8-5,89.8,71.5,60.3,66.6,60.0,55.2,85,69,44,30.03,29.95,11,2,11,0.00
2014-8-6,88.9,75.8,65.5,66.2,61.0,54.4,85,62,41,29.99,29.91,14,2,14,0.00
2014-8-7,85.7,69.6,58.1,62.5,56.6,52.8,88,66,39,29.94,29.85,11,2,11,0.00
2014-8-8,88.0,69.4,56.3,59.8,55.2,51.1,88,64,33,29.90,29.81,10,2,10,0.00
2014-8-9,79.2,64.3,55.1,59.1,54.2,50.6,87,71,48,29.95,29.86,11,3,11,0.00
2014-8-10,83.9,66.8,58.0,59.6,55.6,52.7,85,69,43,29.97,29.89,13,3,13,0.00
2014-8-11,89.5,69.4,55.4,62.6,56.6,51.5,90,67,35,29.92,29.84,12,2,12,0.00
2014-8-12,82.3,67.1,57.6,59.9,56.1,52.8,88,70,42,29.95,29.88,12,3,12,0.00
2014-8-13,84.6,69.0,56.9,59.6,56.2,52.2,87,67,40,29.97,29.88,11,3,11,0.00
2014-8-14,88.0,70.7,56.5,61.4,54.5,49.1,91,61,29,29.93,29.85,13,2,13,0.00
2014-8-15,92.5,71.9,55.6,61.0,53.6,47.5,89,57,24,29.97,29.90,13,2,13,0.00
2014-8-16,91.4,71.1,55.1,61.5,52.4,41.2,89,57,24,30.01,29.91,10,2,10,0.00
2014-8-17,89.5,68.4,52.4,58.6,52.4,46.7,86,61,28,30.00,29.86,13,2,13,0.00
2014-8-18,81.9,65.3,56.9,61.3,56.2,52.0,88,74,48,29.89,29.76,13,3,13,0.00
2014-8-19,79.0,65.7,59.0,60.9,57.3,55.1,87,75,53,29.84,29.77,13,3,13,0.00
2014-8-20,77.6,67.2,59.4,60.6,57.6,54.5,86,72,55,29.90,29.81,13,4,13,0.00
2014-8-21,88.9,70.3,56.0,63.9,57.5,52.7,91,67,36,29.93,29.85,12,2,12,0.00
2014-8-22,83.7,67.2,57.2,61.9,56.9,52.4,90,72,44,29.90,29.85,14,3,14,0.00
2014-8-23,85.5,66.6,53.5,59.1,54.4,50.3,92,69,30,29.92,29.80,9,2,9,0.00
2014-8-24,81.7,66.6,55.6,59.1,55.7,51.1,89,70,44,29.87,29.76,12,3,12,0.00
2014-8-25,77.0,64.7,58.7,58.6,56.0,53.1,85,74,52,29.92,29.81,12,4,12,0.00
2014-8-26,87.1,68.8,56.3,60.3,55.7,51.5,87,66,37,29.98,29.88,10,2,10,0.00
2014-8-27,94.9,72.6,55.4,61.9,55.4,50.4,90,60,26,30.03,29.94,13,2,13,0.00
2014-8-28,93.2,71.8,56.2,63.4,56.6,50.8,89,62,33,30.04,29.88,13,2,13,0.00
2014-8-29,62.3,59.1,57.8,55.2,54.1,53.5,88,84,75,29.92,29.90,4,0,4,0.00
2014-8-30,90.4,77.1,61.9,59.5,56.2,54.5,79,52,31,29.86,29.80,13,3,13,0.00
2014-8-31,90.9,71.0,57.1,61.7,56.3,51.0,91,64,32,29.90,29.79,12,2,12,0.00
2014-9-1,98.5,74.8,55.1,59.4,54.0,50.3,88,54,25,29.83,29.71,10,2,10,0.00
2014-9-2,82.8,70.1,58.5,61.8,57.5,52.0,86,66,47,29.81,29.73,10,2,10,0.00
2014-9-3,88.2,68.4,56.3,62.5,56.9,52.8,91,70,39,29.77,29.65,9,2,9,0.00
2014-9-4,88.4,68.6,56.9,61.3,56.6,53.0,90,69,37,29.77,29.67,8,2,8,0.00
2014-9-5,84.6,67.2,57.2,60.6,56.5,52.6,90,71,42,29.88,29.76,13,2,13,0.00
2014-9-6,85.7,66.2,54.7,59.4,54.6,50.4,88,69,35,29.93,29.83,12,2,12,0.00
2014-9-7,83.7,64.4,50.9,57.9,52.7,47.2,91,69,38,29.87,29.76,11,2,11,0.00
2014-9-8,73.8,61.3,53.3,54.6,51.5,48.6,88,72,50,29.92,29.81,14,2,14,0.00
2014-9-9,86.8,66.1,51.1,57.3,51.3,48.0,92,64,28,29.97,29.85,9,1,9,0.00
2014-9-10,98.1,72.8,50.8,58.1,51.5,46.1,88,54,19,29.92,29.78,9,1,9,0.00
2014-9-11,100.3,75.7,54.0,58.4,50.7,42.8,81,48,16,29.87,29.77,9,1,10,0.00
2014-9-12,100.1,76.2,55.4,60.9,53.8,47.4,78,50,24,29.86,29.74,8,1,8,0.00
2014-9-13,96.1,74.1,58.3,62.1,56.2,51.6,81,57,30,29.82,29.71,7,1,8,0.00
2014-9-14,91.1,73.0,57.4,60.1,53.4,48.4,84,55,27,29.82,29.75,11,2,11,0.00
2014-9-15,83.5,68.6,57.1,60.3,53.6,48.6,84,61,37,29.91,29.79,11,2,12,0.00
2014-9-16,89.3,69.9,54.4,61.9,55.4,50.6,89,64,33,29.91,29.76,11,2,11,0.00
2014-9-17,86.0,70.0,56.3,62.1,56.2,52.4,91,65,34,29.79,29.71,14,2,14,0.00
2014-9-18,80.1,70.7,61.4,64.3,61.1,56.1,88,73,51,29.87,29.75,11,3,11,0.02
2014-9-19,83.9,68.5,56.3,64.2,58.5,53.1,93,73,45,29.89,29.80,11,2,11,0.00
2014-9-20,82.6,67.9,58.5,63.7,58.3,55.4,92,74,43,29.91,29.84,11,2,11,0.00
2014-9-21,73.6,65.0,61.6,61.6,58.6,56.3,86,80,66,29.99,29.89,14,4,14,0.00
2014-9-22,85.3,68.9,61.4,61.8,58.1,54.7,87,71,41,30.01,29.90,13,2,13,0.00
2014-9-23,85.0,68.8,56.2,63.7,57.8,52.7,90,71,39,29.98,29.87,11,2,11,0.00
2014-9-24,81.0,69.5,63.2,64.9,61.9,59.1,90,78,55,29.95,29.84,12,2,12,0.00
2014-9-25,74.0,64.3,57.2,62.3,57.1,52.4,92,78,54,29.99,29.86,8,2,8,0.43
2014-9-26,78.5,63.9,54.2,62.2,54.6,51.6,93,74,50,29.97,29.87,15,2,15,0.00
2014-9-27,76.3,63.4,53.8,60.8,55.1,50.8,92,76,52,29.90,29.78,12,2,12,0.00
2014-9-28,77.0,64.4,54.2,60.7,55.7,50.8,90,74,52,29.93,29.80,9,2,9,0.00
2014-9-29,78.5,63.5,54.2,60.8,55.6,50.9,92,77,48,30.00,29.92,12,2,12,0.00
2014-9-30,80.8,64.7,52.9,59.7,55.2,50.3,93,74,45,29.95,29.80,9,1,9,0.00
2014-10-1,87.1,68.3,52.0,58.8,45.1,34.9,90,52,18,29.92,29.82,8,1,8,0.00
2014-10-2,90.5,67.1,46.4,49.6,44.1,39.2,79,49,23,30.02,29.92,7,1,8,0.00
2014-10-3,95.0,70.4,49.3,52.8,45.5,41.7,79,47,18,30.08,29.97,8,1,8,0.00
2014-10-4,96.7,71.1,49.3,52.2,43.7,36.9,74,43,15,30.03,29.89,7,1,7,0.00
2014-10-5,97.9,71.2,49.9,51.2,44.6,40.1,72,44,16,29.94,29.84,6,1,6,0.00
2014-10-6,97.0,72.1,51.1,57.0,48.0,42.1,73,47,23,29.91,29.80,7,1,7,0.00
2014-10-7,92.7,69.5,50.6,58.3,51.0,43.8,80,55,29,29.90,29.79,8,1,8,0.00
2014-10-8,94.7,70.4,51.1,57.8,50.5,45.4,86,55,21,29.89,29.80,10,1,10,0.00
2014-10-9,84.1,65.6,51.7,59.3,52.2,47.2,87,65,37,29.95,29.87,10,2,10,0.00
2014-10-10,79.6,64.5,52.2,58.8,53.4,48.1,90,69,42,30.04,29.93,8,2,8,0.00
2014-10-11,87.1,64.7,50.0,60.7,52.4,46.5,92,68,38,30.03,29.92,10,1,10,0.00
2014-10-12,91.8,70.7,54.2,49.7,39.0,25.4,81,40,10,29.97,29.87,10,1,10,0.00
2014-10-13,91.6,67.2,48.2,48.3,40.3,30.9,68,43,13,29.95,29.87,12,1,12,0.00
2014-10-14,72.4,62.7,51.1,57.6,52.7,46.4,89,71,54,29.91,29.78,18,3,18,0.00
2014-10-15,72.7,64.0,55.8,58.2,54.3,50.1,89,72,51,30.00,29.83,9,2,9,0.06
2014-10-16,74.5,59.6,48.2,57.0,49.0,44.9,91,71,40,30.01,29.90,9,1,9,0.00
2014-10-17,75.8,60.4,47.2,53.0,48.8,43.7,89,68,45,29.96,29.88,8,1,8,0.00
2014-10-18,78.8,63.9,49.7,58.2,52.5,45.6,89,69,45,29.97,29.84,7,1,10,0.00
2014-10-19,80.3,64.7,51.8,60.8,55.1,48.3,91,73,45,29.90,29.81,13,2,13,0.00
2014-10-20,74.9,62.6,52.4,60.9,55.3,48.1,86,77,59,30.03,29.87,10,2,10,0.00
2014-10-21,71.3,58.1,45.4,54.2,47.0,42.4,92,70,39,30.09,29.97,9,1,9,0.00
2014-10-22,75.6,60.5,45.7,55.5,49.3,42.1,90,69,42,30.05,29.96,8,1,8,0.00
2014-10-23,75.1,62.8,53.3,60.0,54.2,50.1,90,75,54,30.05,29.93,5,1,5,0.00
2014-10-24,77.8,61.5,47.5,58.0,52.2,44.2,92,73,45,29.97,29.84,10,2,10,0.00
2014-10-25,72.0,62.7,54.0,59.9,55.4,50.7,89,78,60,30.11,29.93,11,3,11,0.20
2014-10-26,68.2,57.2,47.5,55.2,47.2,42.3,93,72,42,30.13,30.01,9,1,9,0.00
2014-10-27,73.1,55.6,41.2,51.4,44.9,37.9,91,70,37,30.05,29.96,8,1,8,0.00
2014-10-28,75.6,58.5,43.2,51.5,45.3,39.2,90,65,33,30.10,30.02,8,1,8,0.00
2014-10-29,79.9,61.9,46.6,54.9,47.4,42.6,89,63,33,30.10,29.95,4,1,4,0.00
2014-10-30,80.6,61.8,51.1,54.9,50.1,44.5,82,67,33,29.95,29.84,6,1,6,0.00
2014-10-31,62.3,57.7,53.8,57.1,53.2,50.7,90,85,76,29.88,29.70,5,1,5,0.09
2014-11-1,63.7,53.9,46.1,52.1,47.6,42.1,93,80,57,30.00,29.69,10,2,10,0.02
2014-11-2,65.9,52.2,40.5,50.4,42.6,37.5,92,72,43,30.15,30.00,5,1,5,0.00
2014-11-3,68.9,52.8,39.6,47.9,41.8,36.0,91,69,35,30.23,30.13,5,1,5,0.00
2014-11-4,70.0,53.8,40.5,50.1,42.9,36.8,89,69,43,30.29,30.20,5,1,5,0.00
2014-11-5,75.6,58.4,43.6,51.5,45.3,39.3,86,65,39,30.21,30.05,5,1,5,0.00
2014-11-6,76.5,59.6,46.1,54.7,48.5,41.9,88,69,38,30.19,30.12,5,1,5,0.00
2014-11-7,75.1,58.4,46.4,56.2,49.5,43.6,91,74,51,30.20,30.06,5,1,5,0.00
2014-11-8,77.8,59.3,45.0,57.6,48.3,41.7,90,69,43,30.10,29.97,7,1,7,0.00
2014-11-9,77.6,59.0,44.3,55.4,48.1,40.3,89,70,40,30.01,29.79,7,1,7,0.00
2014-11-10,75.8,58.5,45.4,57.3,49.3,42.0,91,74,46,29.82,29.74,9,1,9,0.00
2014-11-11,66.6,58.0,52.2,52.4,49.7,45.2,89,74,55,29.94,29.81,10,2,10,0.00
2014-11-12,65.3,59.0,53.5,49.9,48.2,45.4,82,68,49,29.99,29.92,8,1,8,0.02
2014-11-13,65.5,58.9,53.6,60.6,54.9,49.5,93,87,73,30.05,29.90,10,1,10,0.56
2014-11-14,67.0,56.0,47.0,56.0,50.7,44.8,95,83,62,30.08,30.02,9,1,12,0.00
2014-11-15,65.2,52.9,43.9,53.8,47.3,41.5,93,82,63,30.16,30.05,8,1,8,0.00
2014-11-16,63.2,50.7,41.4,45.1,35.2,22.5,91,61,23,30.23,30.13,7,1,7,0.00
2014-11-17,66.4,49.1,36.4,40.4,35.0,31.3,84,62,31,30.23,30.07,8,1,8,0.00
2014-11-18,61.7,49.8,40.1,46.7,41.7,35.6,89,74,57,30.11,30.02,6,0,6,0.00
2014-11-19,63.4,54.9,48.8,55.1,49.6,43.8,92,83,59,30.09,29.97,10,1,10,0.22
2014-11-20,57.4,53.7,48.4,54.6,51.1,46.1,93,91,86,30.08,29.95,6,0,6,1.17
2014-11-21,62.3,55.5,49.3,53.5,50.9,47.1,94,85,69,30.09,29.99,6,0,6,0.00
2014-11-22,65.9,57.4,50.4,60.7,53.3,47.6,93,87,69,30.21,30.02,11,1,11,0.26
2014-11-23,63.5,50.6,40.7,50.1,43.1,36.2,94,77,48,30.30,30.20,6,0,6,0.02
2014-11-24,65.2,48.1,35.6,42.9,37.1,32.7,92,69,33,30.38,30.28,6,0,6,0.00
2014-11-25,65.2,49.4,38.3,50.3,41.5,34.1,93,76,50,30.43,30.30,8,1,8,0.00
2014-11-26,67.7,50.9,38.5,52.5,43.9,35.8,93,78,55,30.30,30.16,5,0,5,0.00
2014-11-27,67.7,51.1,40.5,53.2,44.4,37.1,91,79,53,30.18,30.02,5,1,5,0.00
2014-11-28,65.3,49.9,34.9,51.7,43.6,32.0,93,80,53,30.03,29.82,9,1,9,0.00
2014-11-29,65.9,57.9,53.5,58.2,53.5,48.7,92,85,72,29.84,29.72,7,0,7,0.26
2014-11-30,57.8,54.1,51.1,53.5,51.2,48.7,93,90,83,30.00,29.71,12,1,12,0.84
2014-12-1,61.6,55.5,52.2,56.5,52.9,50.2,95,91,83,30.10,29.93,6,1,6,0.09
2014-12-2,56.0,53.8,52.2,53.5,51.8,50.2,95,93,89,29.94,29.65,13,2,13,1.63
2014-12-3,63.0,58.0,53.3,58.9,55.7,51.1,95,92,82,29.86,29.68,18,2,18,1.45
2014-12-4,67.9,56.9,50.8,59.6,52.9,48.1,95,87,67,30.00,29.85,6,0,6,0.08
2014-12-5,67.0,57.3,48.8,58.9,53.5,46.9,95,87,70,30.06,29.95,9,1,9,0.20
2014-12-6,67.7,59.7,53.3,60.2,55.5,50.7,94,87,69,30.19,30.05,8,1,8,0.24
2014-12-7,63.0,55.0,48.2,57.8,52.1,45.8,95,90,81,30.18,30.09,6,0,6,0.00
2014-12-8,68.6,55.8,49.0,58.0,51.5,46.7,94,86,65,30.16,30.07,6,0,6,0.00
2014-12-9,65.3,54.5,47.9,57.6,50.8,45.5,94,88,74,30.16,30.05,6,0,6,0.00
2014-12-10,64.3,56.8,50.8,56.3,51.6,48.4,93,83,67,30.05,29.71,14,2,14,0.00
2014-12-11,64.3,55.6,47.3,54.7,50.3,44.9,91,83,66,29.71,29.50,18,3,18,3.85
2014-12-12,56.3,48.5,42.8,50.2,45.1,40.1,92,88,77,30.05,29.61,6,0,6,0.20
2014-12-13,54.7,46.0,39.4,48.7,42.5,37.0,92,88,78,30.19,30.05,7,0,7,0.00
2014-12-14,58.7,47.5,40.0,48.2,42.7,37.3,91,84,66,30.12,29.96,8,1,8,0.06
2014-12-15,54.7,48.5,45.2,49.1,45.0,42.2,90,88,79,29.97,29.80,10,1,10,1.30
2014-12-16,60.1,48.9,41.2,51.5,44.0,38.5,90,84,64,29.94,29.79,10,1,10,0.76
2014-12-17,57.8,48.1,41.6,50.1,43.8,38.3,89,85,71,30.05,29.90,8,0,8,0.34
2014-12-18,61.0,51.2,46.4,53.3,46.3,42.2,87,84,72,30.15,30.03,5,0,5,0.03
2014-12-19,58.0,51.9,45.7,51.7,47.0,41.8,86,83,80,30.14,30.06,8,0,8,0.26
2014-12-20,61.0,53.9,48.6,54.2,48.1,43.7,83,81,74,30.22,30.08,5,0,5,0.04
2014-12-21,65.9,56.3,51.5,58.3,49.7,45.5,80,79,77,30.28,30.20,10,1,10,0.04
2014-12-22,64.6,55.6,45.7,55.8,48.4,39.2,79,77,71,30.25,30.14,0,0,0,0.00
2014-12-23,67.3,51.5,41.2,53.7,43.2,35.1,80,74,57,30.18,30.10,8,0,8,0.00
2014-12-24,59.8,46.6,38.9,51.7,40.0,33.1,80,78,74,30.10,29.90,15,2,15,0.00
2014-12-25,56.2,44.1,34.4,38.6,32.1,28.8,80,65,38,30.12,30.01,14,1,14,0.00
2014-12-26,56.2,45.4,35.3,32.8,30.6,27.8,77,58,34,30.22,30.06,10,1,10,0.00
2014-12-27,53.5,40.6,30.6,38.5,32.1,25.4,81,72,54,30.34,30.22,6,0,6,0.00
2014-12-28,56.7,43.1,34.2,43.6,35.5,28.4,80,75,58,30.33,30.18,6,0,6,0.00
2014-12-29,56.0,44.3,36.5,45.4,36.8,30.6,79,75,63,30.20,30.06,14,0,14,0.00
2014-12-30,51.5,43.3,34.6,33.3,23.9,13.1,80,50,27,30.21,30.04,20,3,20,0.00
2014-12-31,56.5,44.8,37.4,18.8,14.6,4.8,45,31,15,30.22,30.03,10,2,10,0.00
2015-1-1,52.6,40.7,31.1,30.7,24.3,16.1,74,53,38,30.14,30.02,7,1,7,0.00
2015-1-2,51.5,37.0,26.6,34.8,27.5,21.0,80,70,50,30.19,30.06,5,0,5,0.00